Weather History for Ironwood, MI

Change the Weather History Date:

Friday, February 15, 2013

  Actual Average Record
Temperature  
Mean Temperature 12 °F -  
Max Temperature 17 °F 26 °F 48 °F (1998)
Min Temperature 8 °F 9 °F -20 °F (2014)
Degree Days  
Heating Degree Days 52    
Moisture  
Dew Point 5 °F    
Average Humidity 73    
Maximum Humidity 92    
Minimum Humidity 57    
Precipitation  
Precipitation 0.00 in - - ()
Sea Level Pressure  
Sea Level Pressure 30.08 in    
Wind  
Wind Speed 9 mph (WNW)    
Max Wind Speed 17 mph    
Max Gust Speed 24 mph    
Visibility 4 miles    
Events      
Averages and records for this station are not official NWS values.
T = Trace of Precipitation, MM = Missing Value Source: NWS Daily Summary

Daily Weather History Graph

Daily Weather History Graph

Search for Another Location

Airport:

Trip Planner

Search our weather history database for the weather conditions in past years. The results will help you decide how hot, cold, wet, or windy it might be!

Date:

Astronomy

Feb. 15, 2013 Rise Set
Actual Time 7:03 AM CST 5:26 PM CST
Civil Twilight 6:32 AM CST 5:57 PM CST
Nautical Twilight 5:57 AM CST 6:32 PM CST
Astronomical Twilight 5:22 AM CST 7:07 PM CST
Moon 9:16 AM CST (2/15) 11:52 PM CST (2/15)
Length of Visible Light 11h 24m
Length of Day
10h 22m
Waxing Crescent, 30% of the Moon is Illuminated
Feb 15
Waxing Crescent
Feb 17
First Quarter
Feb 25
Full
Mar 4
Last Quarter
Mar 11
New

Hourly Weather History & Observations

Time (CST) Temp. Windchill Dew Point Humidity Pressure Visibility Wind Dir Wind Speed Gust Speed Precip Events Conditions
12:15 AM 17.6 °F 8.2 °F 6.8 °F 63% 30.00 in 10.0 mi NNW 6.9 mph - N/A   Overcast
12:35 AM 17.6 °F 9.3 °F 6.8 °F 63% 30.00 in 10.0 mi NW 5.8 mph - N/A   Overcast
12:55 AM 17.6 °F 4.3 °F 6.8 °F 63% 30.00 in 10.0 mi NNW 12.7 mph - N/A   Overcast
1:15 AM 17.6 °F 6.4 °F 6.8 °F 63% 30.00 in 9.0 mi NNW 9.2 mph - N/A   Overcast
1:35 AM 17.6 °F 6.4 °F 8.6 °F 68% 30.00 in 2.5 mi NNW 9.2 mph - N/A   Overcast
1:55 AM 15.8 °F 3.4 °F 10.4 °F 79% 30.00 in 3.0 mi NNW 10.4 mph - N/A   Overcast
2:15 AM 15.8 °F 6.1 °F 8.6 °F 73% 30.00 in 3.0 mi NW 6.9 mph - N/A   Overcast
2:35 AM 15.8 °F 6.1 °F 8.6 °F 73% 30.01 in 4.0 mi NNW 6.9 mph - N/A   Overcast
2:55 AM 15.8 °F 6.1 °F 10.4 °F 79% 30.00 in 2.5 mi NW 6.9 mph - N/A   Overcast
3:15 AM 15.8 °F 6.1 °F 10.4 °F 79% 30.00 in 2.5 mi NW 6.9 mph - N/A   Overcast
3:35 AM 15.8 °F 3.4 °F 10.4 °F 79% 30.00 in 3.0 mi NW 10.4 mph - N/A   Overcast
3:55 AM 15.8 °F 5.1 °F 10.4 °F 79% 30.01 in 2.5 mi WNW 8.1 mph - N/A   Overcast
4:15 AM 15.8 °F 6.1 °F 10.4 °F 79% 30.01 in 2.0 mi WNW 6.9 mph - N/A   Overcast
4:35 AM 15.8 °F 6.1 °F 8.6 °F 73% 30.02 in 2.0 mi WNW 6.9 mph - N/A   Overcast
4:55 AM 15.8 °F 6.1 °F 10.4 °F 79% 30.03 in 2.5 mi WNW 6.9 mph - N/A   Overcast
5:15 AM 15.8 °F 6.1 °F 10.4 °F 79% 30.03 in 3.0 mi West 6.9 mph - N/A   Overcast
5:35 AM 14.0 °F 2.9 °F 8.6 °F 79% 30.03 in 3.0 mi WSW 8.1 mph - N/A   Overcast
5:55 AM 14.0 °F 1.2 °F 8.6 °F 79% 30.03 in 10.0 mi West 10.4 mph - N/A   Overcast
6:15 AM 12.2 °F 0.7 °F 10.4 °F 92% 30.04 in 10.0 mi WSW 8.1 mph - N/A   Overcast
6:35 AM 12.2 °F -0.2 °F 6.8 °F 79% 30.04 in 5.0 mi WSW 9.2 mph - N/A   Overcast
6:55 AM 12.2 °F -1.0 °F 6.8 °F 79% 30.05 in 4.0 mi WSW 10.4 mph - N/A   Mostly Cloudy
7:15 AM 12.2 °F -1.0 °F 6.8 °F 79% 30.05 in 1.5 mi WSW 10.4 mph - N/A   Overcast
7:35 AM 12.2 °F -1.0 °F 6.8 °F 79% 30.06 in 0.5 mi West 10.4 mph - N/A   Overcast
7:55 AM 10.4 °F -4.1 °F 6.8 °F 85% 30.07 in 2.0 mi West 11.5 mph - N/A   Overcast
8:15 AM 10.4 °F -3.3 °F 6.8 °F 85% 30.07 in 9.0 mi West 10.4 mph - N/A   Overcast
8:35 AM 12.2 °F -1.8 °F 6.8 °F 79% 30.08 in 6.0 mi West 11.5 mph - N/A   Overcast
8:55 AM 12.2 °F -0.2 °F 5.0 °F 73% 30.08 in 10.0 mi WNW 9.2 mph - N/A   Overcast
9:15 AM 12.2 °F -3.7 °F 6.8 °F 79% 30.09 in 1.2 mi WNW 15.0 mph 18.4 mph N/A   Overcast
9:35 AM 12.2 °F -1.8 °F 6.8 °F 79% 30.09 in 0.5 mi WNW 11.5 mph 19.6 mph N/A   Overcast
9:55 AM 12.2 °F -4.3 °F 5.0 °F 73% 30.09 in 0.5 mi WNW 16.1 mph 20.7 mph N/A   Overcast
10:15 AM 12.2 °F -4.3 °F 6.8 °F 79% 30.10 in 1.5 mi NW 16.1 mph 19.6 mph N/A   Overcast
10:35 AM 12.2 °F -4.8 °F 5.0 °F 73% 30.10 in 0.5 mi NW 17.3 mph - N/A   Overcast
10:55 AM 10.4 °F -6.0 °F 3.2 °F 73% 30.10 in 0.8 mi NW 15.0 mph - N/A   Overcast
11:15 AM 10.4 °F -6.6 °F 1.4 °F 67% 30.11 in 2.5 mi NW 16.1 mph 24.2 mph N/A   Overcast
11:55 AM 10.4 °F -6.0 °F 1.4 °F 67% 30.10 in 0.8 mi NW 15.0 mph 19.6 mph N/A   Overcast
12:15 PM 10.4 °F -6.0 °F 3.2 °F 73% 30.10 in 1.0 mi NW 15.0 mph 19.6 mph N/A   Overcast
12:35 PM 10.4 °F -4.1 °F 1.4 °F 67% 30.10 in 1.8 mi NW 11.5 mph - N/A   Overcast
12:55 PM 10.4 °F -7.2 °F 1.4 °F 67% 30.10 in 1.0 mi NW 17.3 mph 20.7 mph N/A   Overcast
1:15 PM 10.4 °F -4.8 °F -0.4 °F 62% 30.10 in 1.8 mi WNW 12.7 mph - N/A   Overcast
1:35 PM 10.4 °F -4.8 °F -0.4 °F 62% 30.10 in 2.0 mi WNW 12.7 mph - N/A   Overcast
2:55 PM 10.4 °F -6.0 °F -0.4 °F 62% 30.11 in 5.0 mi NW 15.0 mph - N/A   Overcast
3:15 PM 10.4 °F -4.1 °F 1.4 °F 67% 30.11 in 8.0 mi WNW 11.5 mph 18.4 mph N/A   Overcast
3:35 PM 10.4 °F -4.8 °F -0.4 °F 62% 30.12 in 10.0 mi WNW 12.7 mph 19.6 mph N/A   Mostly Cloudy
3:55 PM 10.4 °F -4.8 °F -2.2 °F 57% 30.12 in 10.0 mi West 12.7 mph 16.1 mph N/A   Mostly Cloudy
4:15 PM 10.4 °F -2.4 °F 1.4 °F 67% 30.12 in 3.0 mi West 9.2 mph - N/A   Mostly Cloudy
4:35 PM 10.4 °F -1.5 °F 1.4 °F 67% 30.12 in 1.2 mi West 8.1 mph - N/A   Overcast
4:55 PM 8.6 °F -5.5 °F 5.0 °F 85% 30.13 in 1.0 mi West 10.4 mph - N/A   Overcast
5:15 PM 10.4 °F 2.2 °F 1.4 °F 67% 30.13 in 3.0 mi WNW 4.6 mph - N/A   Mostly Cloudy
5:35 PM 10.4 °F -3.3 °F 3.2 °F 73% 30.12 in 1.2 mi West 10.4 mph - N/A   Overcast
5:55 PM 8.6 °F -2.6 °F 3.2 °F 79% 30.12 in 2.0 mi West 6.9 mph - N/A   Overcast
6:15 PM 8.6 °F -3.7 °F 3.2 °F 79% 30.12 in 1.2 mi West 8.1 mph - N/A   Overcast
6:35 PM 8.6 °F -1.3 °F 3.2 °F 79% 30.13 in 0.8 mi West 5.8 mph - N/A   Overcast
6:55 PM 8.6 °F -1.3 °F 3.2 °F 79% 30.12 in 5.0 mi West 5.8 mph - N/A   Overcast
7:15 PM 10.4 °F -1.5 °F 3.2 °F 73% 30.12 in 10.0 mi WNW 8.1 mph - N/A   Overcast
7:35 PM 10.4 °F 0.8 °F 1.4 °F 67% 30.12 in 5.0 mi WNW 5.8 mph - N/A   Overcast
7:55 PM 10.4 °F -3.3 °F 3.2 °F 73% 30.11 in 4.0 mi WNW 10.4 mph - N/A   Overcast
8:15 PM 10.4 °F -0.4 °F 3.2 °F 73% 30.12 in 1.2 mi WNW 6.9 mph - N/A   Overcast
8:35 PM 10.4 °F -6.0 °F 6.8 °F 85% 30.11 in 2.0 mi WNW 15.0 mph - N/A   Overcast
8:55 PM 10.4 °F -3.3 °F 1.4 °F 67% 30.12 in 3.0 mi WNW 10.4 mph - N/A   Overcast
9:15 PM 10.4 °F -4.1 °F 3.2 °F 73% 30.11 in 10.0 mi WNW 11.5 mph - N/A   Overcast
9:35 PM 10.4 °F -3.3 °F -0.4 °F 62% 30.11 in 10.0 mi WNW 10.4 mph - N/A   Overcast
9:55 PM 10.4 °F -3.3 °F -2.2 °F 57% 30.11 in 10.0 mi WNW 10.4 mph - N/A   Overcast
10:15 PM 8.6 °F -4.7 °F -0.4 °F 67% 30.10 in 5.0 mi WNW 9.2 mph - N/A   Overcast
10:35 PM 8.6 °F -4.7 °F 3.2 °F 79% 30.10 in 1.5 mi WNW 9.2 mph - N/A   Overcast
10:55 PM 8.6 °F -2.6 °F 3.2 °F 79% 30.10 in 1.5 mi WNW 6.9 mph - N/A   Overcast
11:15 PM 8.6 °F -3.7 °F 3.2 °F 79% 30.09 in 1.2 mi WNW 8.1 mph - N/A   Overcast
11:35 PM 8.6 °F -2.6 °F 1.4 °F 73% 30.09 in 4.0 mi WNW 6.9 mph - N/A   Overcast
11:55 PM 8.6 °F -2.6 °F 1.4 °F 73% 30.09 in 5.0 mi WNW 6.9 mph - N/A   Overcast